{"data":{"norad_id":60034,"epoch":"2026-09-21T14:10:25.277376Z","epoch_age_seconds":83972,"freshness":"FRESH","line1":"1 60034U 24111U   26264.59057034 -.00001054  00000+0 -20070-4 0  9999","line2":"2 60034  53.1585 244.4899 0001291  88.4170 271.6980 15.34386169128946","mean_motion":15.34386169,"eccentricity":0.0001291,"inclination_deg":53.1585,"raan_deg":244.4899,"arg_perigee_deg":88.417,"mean_anomaly_deg":271.698,"bstar":-2.007e-5,"rev_number":12894,"period_min":93.848604027661,"perigee_km":461.86119138047,"apogee_km":463.62750694483,"semimajor_km":6840.8813491627,"source":"CELESTRAK","updated_at":"2026-09-22T09:00:49.140703Z"}}